Simultaneous Nadir Overpasses (SNOs) Predictions

Prediction of SNOs between GOES-17 and TERRA Satellite Orbit:

Table of predicted SNOs for the next 14.0 days since TLE Epoch: 8/24/2024
Index Date Time (GOES-17) GOES-17 Lat,Lon TERRA Lat,Lon Distance(km) Time Diff (sec)
1 08/24/2024 04:56:10 0.00,-104.69 -0.70,-107.90 365.12 80
2 08/26/2024 04:35:46 -0.00,-104.69 0.20,-103.62 121.16 80
3 08/26/2024 16:55:36 0.00,-104.74 0.76,-108.45 421.70 80
4 08/28/2024 16:40:31 0.01,-104.74 -0.13,-104.17 64.88 80
5 08/29/2024 05:00:29 -0.01,-104.69 -0.93,-109.02 491.97 80
6 08/31/2024 04:42:44 -0.01,-104.70 0.00,-104.75 5.47 80
7 09/02/2024 04:22:18 -0.00,-104.71 0.92,-100.46 482.76 80
8 09/02/2024 16:42:06 0.00,-104.75 0.13,-105.27 59.62 80
9 09/04/2024 16:26:59 0.00,-104.76 -0.77,-100.99 428.98 80
10 09/05/2024 04:46:57 -0.00,-104.72 -0.26,-105.84 127.31 80
